Location: Ariel
(45.9570°N, 122.5700°W)
Time: 18:04:36
(UTC-07:00)

Tiros 1 - Pass Details

Date: 20 July 2019
Orbit: 631 x 664 km, 48.4° (Epoch: 23 August)

Event Time Altitude Azimuth Distance (km) Brightness Sun altitude
Rises 18:23:12 0° 289° (WNW) 2,998 11.9 23.8°
Reaches altitude 10° 18:25:34 10° 287° (WNW) 2,081 11.6 23.4°
Maximum altitude 18:30:21 72° 204° (SSW) 695 7.8 22.5°
Drops below altitude 10° 18:35:06 10° 121° (ESE) 2,060 9.3 21.7°
Sets 18:37:25 0° 119° (ESE) 2,964 10.0 21.3°
